LUJ142 GVAC-SBGL

Flight info

Callsign LUJ142
Flight time 6h 3m
Altitude 43000
Route BOTNO UN857 AKNUT/N0464F470 UN857 MOLSU
Aircraft C750/M-SBDE3FGHIRWXY/LB1

Departure

Time 2026-04-25 09:07
Airport Amílcar Cabral International Airport (GVAC)

Arrival

Time 2026-04-25 15:10
Airport Rio Galeão – Tom Jobim International Airport (SBGL)
Time Latitude Longitude Altitude Speed Heading
2026-04-25 08:20 16.73365 -22.94491 203 ft 0 kts 90°
2026-04-25 08:55 16.73365 -22.94495 203 ft 2 kts 90°
2026-04-25 08:56 16.73365 -22.94512 197 ft 2 kts 91°
2026-04-25 08:56 16.73366 -22.94530 197 ft 2 kts 92°
2026-04-25 08:56 16.73367 -22.94547 197 ft 2 kts 94°
2026-04-25 08:56 16.73368 -22.94564 203 ft 2 kts 98°
2026-04-25 08:57 16.73372 -22.94581 206 ft 2 kts 108°
2026-04-25 08:57 16.73380 -22.94595 199 ft 2 kts 170°
2026-04-25 08:57 16.73383 -22.94596 207 ft 0 kts 186°
2026-04-25 08:59 16.73376 -22.94596 200 ft 3 kts 182°
2026-04-25 08:59 16.73359 -22.94596 202 ft 2 kts 179°
2026-04-25 08:59 16.73318 -22.94595 204 ft 8 kts 182°
2026-04-25 09:00 16.73273 -22.94594 197 ft 6 kts 180°
2026-04-25 09:00 16.73250 -22.94594 197 ft 5 kts 180°
2026-04-25 09:00 16.73198 -22.94594 207 ft 10 kts 180°
2026-04-25 09:00 16.73119 -22.94594 197 ft 10 kts 182°
2026-04-25 09:01 16.73069 -22.94630 197 ft 9 kts 243°
2026-04-25 09:01 16.73039 -22.94679 198 ft 7 kts 224°
2026-04-25 09:01 16.72996 -22.94691 199 ft 7 kts 184°
2026-04-25 09:01 16.72904 -22.94690 186 ft 19 kts 179°
2026-04-25 09:02 16.72760 -22.94690 185 ft 21 kts 180°
2026-04-25 09:02 16.72613 -22.94684 182 ft 21 kts 174°
2026-04-25 09:02 16.72472 -22.94685 179 ft 18 kts 181°
2026-04-25 09:02 16.72430 -22.94692 179 ft 0 kts 197°
2026-04-25 09:03 16.72425 -22.94694 179 ft 3 kts 202°
2026-04-25 09:04 16.72406 -22.94736 180 ft 10 kts 271°
2026-04-25 09:04 16.72407 -22.94785 181 ft 1 kts 270°
2026-04-25 09:05 16.72407 -22.94800 181 ft 5 kts 270°
2026-04-25 09:05 16.72407 -22.94834 182 ft 2 kts 272°
2026-04-25 09:05 16.72408 -22.94839 182 ft 1 kts 273°
2026-04-25 09:05 16.72413 -22.94865 183 ft 7 kts 291°
2026-04-25 09:06 16.72452 -22.94889 193 ft 0 kts
2026-04-25 09:06 16.72472 -22.94889 186 ft 18 kts
2026-04-25 09:06 16.72924 -22.94888 195 ft 109 kts
2026-04-25 09:06 16.73844 -22.94896 335 ft 141 kts
2026-04-25 09:07 16.74846 -22.94943 820 ft 149 kts
2026-04-25 09:07 16.75891 -22.95041 1471 ft 154 kts 358°
2026-04-25 09:07 16.76990 -22.95132 2072 ft 159 kts
2026-04-25 09:07 16.78089 -22.95172 2775 ft 158 kts
2026-04-25 09:08 16.79197 -22.95199 3366 ft 163 kts 359°
2026-04-25 09:08 16.80422 -22.95223 3598 ft 190 kts 359°
2026-04-25 09:08 16.81835 -22.95250 3818 ft 216 kts 359°
2026-04-25 09:08 16.83438 -22.95280 4048 ft 244 kts 358°
2026-04-25 09:09 16.85166 -22.95312 4665 ft 255 kts 356°
2026-04-25 09:09 16.86978 -22.95196 5220 ft 271 kts 12°
2026-04-25 09:09 16.88559 -22.94086 5889 ft 285 kts 46°
2026-04-25 09:09 16.89333 -22.92157 6537 ft 300 kts 81°
2026-04-25 09:10 16.88992 -22.90008 7207 ft 305 kts 115°
2026-04-25 09:10 16.87837 -22.88168 8052 ft 302 kts 127°
2026-04-25 09:10 16.86663 -22.86337 8903 ft 305 kts 125°
2026-04-25 09:10 16.85508 -22.84422 9708 ft 309 kts 124°
2026-04-25 09:11 16.82230 -22.81417 10190 ft 338 kts 154°
2026-04-25 09:11 16.79977 -22.80536 10153 ft 356 kts 173°
2026-04-25 09:11 16.77533 -22.80444 10750 ft 352 kts 185°
2026-04-25 09:12 16.75080 -22.80592 11370 ft 354 kts 187°
2026-04-25 09:12 16.72607 -22.80799 11898 ft 358 kts 191°
2026-04-25 09:12 16.70137 -22.81242 12462 ft 360 kts 193°
2026-04-25 09:12 16.67655 -22.81792 13040 ft 363 kts 195°
2026-04-25 09:13 16.65149 -22.82306 13601 ft 369 kts 192°
2026-04-25 09:13 16.62585 -22.82597 14123 ft 374 kts 187°
2026-04-25 09:13 16.59976 -22.82824 14650 ft 376 kts 188°
2026-04-25 09:13 16.57382 -22.83162 15173 ft 378 kts 191°
2026-04-25 09:14 16.54763 -22.83556 15694 ft 381 kts 191°
2026-04-25 09:14 16.52125 -22.83896 16228 ft 384 kts 189°
2026-04-25 09:14 16.49452 -22.84206 16782 ft 387 kts 189°
2026-04-25 09:14 16.46764 -22.84544 17332 ft 390 kts 189°
2026-04-25 09:15 16.44060 -22.84906 17902 ft 394 kts 190°
2026-04-25 09:15 16.41337 -22.85259 18447 ft 397 kts 189°
2026-04-25 09:15 16.38576 -22.85603 18898 ft 402 kts 189°
2026-04-25 09:15 16.35784 -22.85955 19336 ft 408 kts 189°
2026-04-25 09:16 16.32984 -22.86316 19802 ft 413 kts 189°
2026-04-25 09:16 16.30076 -22.86690 20279 ft 418 kts 189°
2026-04-25 09:16 16.27132 -22.87063 20761 ft 423 kts 189°
2026-04-25 09:16 16.24200 -22.87435 21234 ft 428 kts 189°
2026-04-25 09:17 16.18252 -22.88194 22162 ft 439 kts 190°
2026-04-25 09:17 16.15199 -22.88583 22643 ft 444 kts 190°
2026-04-25 09:17 16.12182 -22.88967 23095 ft 449 kts 190°
2026-04-25 09:18 16.08991 -22.89398 23564 ft 454 kts 191°
2026-04-25 09:18 16.05878 -22.89839 23979 ft 458 kts 191°
2026-04-25 09:18 16.02807 -22.90259 24452 ft 460 kts 191°
2026-04-25 09:18 15.99510 -22.90696 24919 ft 463 kts 191°
2026-04-25 09:19 15.96262 -22.91134 25376 ft 466 kts 191°
2026-04-25 09:19 15.93038 -22.91577 25837 ft 469 kts 191°
2026-04-25 09:19 15.89807 -22.92018 26289 ft 472 kts 191°
2026-04-25 09:19 15.86527 -22.92459 26740 ft 475 kts 191°
2026-04-25 09:20 15.83239 -22.92903 27189 ft 478 kts 191°
2026-04-25 09:20 15.79937 -22.93353 27638 ft 480 kts 191°
2026-04-25 09:20 15.76611 -22.93804 28083 ft 483 kts 191°
2026-04-25 09:20 15.73257 -22.94257 28525 ft 487 kts 191°
2026-04-25 09:21 15.69890 -22.94712 28949 ft 490 kts 191°
2026-04-25 09:21 15.66499 -22.95172 29372 ft 493 kts 191°
2026-04-25 09:21 15.63084 -22.95634 29788 ft 496 kts 191°
2026-04-25 09:21 15.59654 -22.96098 30166 ft 499 kts 191°
2026-04-25 09:22 15.57321 -22.96413 30415 ft 500 kts 191°
2026-04-25 09:22 15.53772 -22.96892 30821 ft 501 kts 191°
2026-04-25 09:22 15.50315 -22.97359 31292 ft 500 kts 191°
2026-04-25 09:22 15.46793 -22.97833 31878 ft 495 kts 191°
2026-04-25 09:23 15.43474 -22.98282 32369 ft 493 kts 191°
2026-04-25 09:23 15.40092 -22.98739 32878 ft 490 kts 191°
2026-04-25 09:23 15.36635 -22.99205 33417 ft 488 kts 191°
2026-04-25 09:23 15.33515 -22.99626 33907 ft 485 kts 191°
2026-04-25 09:24 15.30136 -23.00082 34412 ft 482 kts 191°
2026-04-25 09:24 15.26817 -23.00529 34898 ft 480 kts 191°
2026-04-25 09:24 15.23540 -23.00971 35364 ft 478 kts 191°
2026-04-25 09:24 15.20209 -23.01419 35867 ft 475 kts 191°
2026-04-25 09:25 15.16942 -23.01859 36366 ft 472 kts 191°
2026-04-25 09:25 15.13684 -23.02298 36871 ft 470 kts 191°
2026-04-25 09:25 15.10456 -23.02732 37369 ft 468 kts 191°
2026-04-25 09:25 15.07236 -23.03166 37867 ft 465 kts 191°
2026-04-25 09:26 15.04035 -23.03596 38387 ft 463 kts 191°
2026-04-25 09:26 15.00844 -23.04025 38858 ft 461 kts 191°
2026-04-25 09:26 14.97670 -23.04452 39271 ft 459 kts 190°
2026-04-25 09:26 14.94503 -23.04878 39687 ft 457 kts 190°
2026-04-25 09:27 14.91362 -23.05300 40122 ft 455 kts 190°
2026-04-25 09:27 14.88237 -23.05719 40529 ft 454 kts 190°
2026-04-25 09:27 14.85089 -23.06142 40947 ft 452 kts 190°
2026-04-25 09:27 14.81978 -23.06559 41362 ft 450 kts 190°
2026-04-25 09:28 14.78881 -23.06975 41754 ft 448 kts 190°
2026-04-25 09:28 14.75796 -23.07389 42121 ft 447 kts 190°
2026-04-25 09:28 14.72717 -23.07802 42479 ft 445 kts 190°
2026-04-25 09:28 14.69649 -23.08213 42821 ft 442 kts 190°
2026-04-25 09:29 14.66639 -23.08616 43001 ft 441 kts 190°
2026-04-25 09:29 14.60433 -23.09451 42987 ft 453 kts 190°
2026-04-25 09:30 14.54112 -23.10295 42994 ft 464 kts 190°
2026-04-25 09:30 14.47615 -23.11164 42990 ft 466 kts 190°
2026-04-25 09:31 14.41204 -23.12021 42992 ft 464 kts 190°
2026-04-25 09:31 14.34791 -23.12879 42981 ft 465 kts 190°
2026-04-25 09:32 14.28406 -23.13731 42982 ft 464 kts 190°
2026-04-25 09:32 14.21989 -23.14589 42980 ft 465 kts 190°
2026-04-25 09:33 14.15579 -23.15443 42979 ft 465 kts 189°
2026-04-25 09:33 14.09104 -23.16307 42987 ft 466 kts 190°
2026-04-25 09:34 14.02666 -23.17165 42990 ft 466 kts 190°
2026-04-25 09:34 13.96225 -23.18023 42994 ft 467 kts 190°
2026-04-25 09:35 13.89827 -23.18875 42985 ft 467 kts 189°
2026-04-25 09:35 13.83598 -23.19703 42988 ft 468 kts 190°
2026-04-25 09:36 13.77069 -23.20572 42992 ft 469 kts 189°
2026-04-25 09:36 13.70605 -23.21431 42995 ft 469 kts 189°
2026-04-25 09:37 13.64270 -23.22273 42990 ft 469 kts 189°
2026-04-25 09:37 13.57843 -23.23126 42981 ft 469 kts 189°
2026-04-25 09:38 13.51385 -23.24090 42960 ft 468 kts 195°
2026-04-25 09:38 13.45383 -23.26608 42987 ft 463 kts 212°
2026-04-25 09:39 13.39777 -23.29932 43008 ft 466 kts 210°
2026-04-25 09:39 13.34030 -23.32988 42987 ft 463 kts 210°
2026-04-25 09:40 13.25536 -23.37771 42987 ft 464 kts 210°
2026-04-25 09:40 13.19840 -23.40904 42982 ft 464 kts 210°
2026-04-25 09:41 13.14164 -23.44073 42983 ft 465 kts 210°
2026-04-25 09:41 13.08459 -23.47218 42983 ft 465 kts 210°
2026-04-25 09:42 13.03721 -23.49854 42983 ft 466 kts 210°
2026-04-25 09:42 12.98013 -23.53007 42980 ft 466 kts 210°
2026-04-25 09:43 12.92290 -23.56176 42983 ft 467 kts 210°
2026-04-25 09:43 12.86566 -23.59340 42985 ft 467 kts 210°
2026-04-25 09:44 12.80855 -23.62498 42984 ft 467 kts 210°
2026-04-25 09:44 12.75120 -23.65666 42980 ft 468 kts 210°
2026-04-25 09:45 12.69658 -23.68682 42979 ft 467 kts 210°
2026-04-25 09:45 12.63914 -23.71852 42971 ft 467 kts 210°
2026-04-25 09:46 12.58147 -23.75033 42970 ft 468 kts 210°
2026-04-25 09:46 12.52410 -23.78196 42973 ft 468 kts 210°
2026-04-25 09:47 12.46645 -23.81373 42978 ft 468 kts 210°
2026-04-25 09:47 12.40902 -23.84536 42981 ft 469 kts 210°
2026-04-25 09:48 12.35156 -23.87699 42982 ft 468 kts 209°
2026-04-25 09:48 12.29417 -23.90858 42983 ft 469 kts 210°
2026-04-25 09:49 12.23659 -23.94023 42980 ft 469 kts 209°
2026-04-25 09:49 12.17910 -23.97183 42985 ft 469 kts 209°
2026-04-25 09:50 12.12185 -24.00328 42980 ft 469 kts 209°
2026-04-25 09:50 12.06388 -24.03512 42975 ft 470 kts 209°
2026-04-25 09:51 12.00657 -24.06657 42977 ft 470 kts 209°
2026-04-25 09:51 11.94894 -24.09819 42978 ft 470 kts 209°
2026-04-25 09:52 11.89127 -24.12981 42978 ft 470 kts 209°
2026-04-25 09:52 11.83335 -24.16155 42980 ft 470 kts 209°
2026-04-25 09:53 11.77575 -24.19310 42978 ft 470 kts 209°
2026-04-25 09:53 11.71800 -24.22473 42979 ft 470 kts 209°
2026-04-25 09:54 11.65992 -24.25651 42983 ft 470 kts 209°
2026-04-25 09:54 11.60209 -24.28814 42981 ft 471 kts 208°
2026-04-25 09:55 11.54465 -24.31954 42980 ft 470 kts 208°
2026-04-25 09:55 11.48653 -24.35131 42977 ft 471 kts 208°
2026-04-25 09:56 11.42921 -24.38262 42977 ft 471 kts 208°
2026-04-25 09:56 11.37143 -24.41417 42981 ft 471 kts 208°
2026-04-25 09:57 11.31322 -24.44593 42972 ft 471 kts 208°
2026-04-25 09:57 11.25536 -24.47749 42975 ft 472 kts 208°
2026-04-25 09:58 11.19790 -24.50882 42976 ft 471 kts 208°
2026-04-25 09:58 11.13967 -24.54055 42980 ft 472 kts 208°
2026-04-25 09:59 11.08173 -24.57211 42972 ft 471 kts 208°
2026-04-25 09:59 11.02384 -24.60363 42972 ft 472 kts 208°
2026-04-25 10:00 10.96600 -24.63511 42976 ft 472 kts 208°
2026-04-25 10:00 10.90799 -24.66667 42971 ft 472 kts 208°
2026-04-25 10:01 10.84992 -24.69824 42972 ft 472 kts 208°
2026-04-25 10:01 10.79201 -24.72972 42971 ft 473 kts 208°
2026-04-25 10:02 10.73388 -24.76130 42976 ft 473 kts 208°
2026-04-25 10:02 10.67575 -24.79286 42974 ft 473 kts 208°
2026-04-25 10:03 10.61777 -24.82433 42979 ft 473 kts 208°
2026-04-25 10:03 10.55970 -24.85584 42973 ft 473 kts 208°
2026-04-25 10:04 10.50194 -24.88716 42974 ft 473 kts 208°
2026-04-25 10:04 10.45332 -24.91352 42971 ft 471 kts 208°
2026-04-25 10:05 10.39549 -24.94486 42957 ft 472 kts 208°
2026-04-25 10:05 10.33736 -24.97634 42974 ft 474 kts 208°
2026-04-25 10:06 10.27917 -25.00785 42961 ft 474 kts 208°
2026-04-25 10:06 10.22109 -25.03928 42965 ft 474 kts 208°
2026-04-25 10:07 10.16277 -25.07084 42971 ft 474 kts 208°
2026-04-25 10:07 10.10464 -25.10227 42969 ft 473 kts 208°
2026-04-25 10:08 10.04604 -25.13394 42966 ft 473 kts 208°
2026-04-25 10:08 9.98792 -25.16534 42964 ft 473 kts 208°
2026-04-25 10:09 9.92973 -25.19677 42969 ft 473 kts 208°
2026-04-25 10:09 9.87156 -25.22816 42963 ft 474 kts 207°
2026-04-25 10:10 9.81299 -25.25973 42969 ft 473 kts 207°
2026-04-25 10:10 9.75516 -25.29090 42968 ft 474 kts 207°
2026-04-25 10:11 9.69652 -25.32248 42969 ft 474 kts 207°
2026-04-25 10:11 9.63826 -25.35386 42964 ft 475 kts 207°
2026-04-25 10:12 9.57981 -25.38532 42964 ft 474 kts 207°
2026-04-25 10:13 9.49224 -25.43243 42965 ft 475 kts 207°
2026-04-25 10:13 9.43344 -25.46405 42962 ft 475 kts 207°
2026-04-25 10:14 9.37511 -25.49540 42964 ft 475 kts 207°
2026-04-25 10:14 9.31675 -25.52676 42958 ft 475 kts 207°
2026-04-25 10:15 9.25890 -25.55783 42965 ft 475 kts 207°
2026-04-25 10:15 9.19981 -25.58956 42968 ft 475 kts 207°
2026-04-25 10:16 9.14090 -25.62118 42962 ft 475 kts 207°
2026-04-25 10:16 9.08250 -25.65251 42965 ft 476 kts 207°
2026-04-25 10:17 9.02396 -25.68391 42970 ft 476 kts 207°
2026-04-25 10:17 8.96540 -25.71530 42966 ft 476 kts 207°
2026-04-25 10:18 8.90692 -25.74664 42970 ft 476 kts 207°
2026-04-25 10:18 8.84842 -25.77798 42963 ft 476 kts 207°
2026-04-25 10:19 8.78988 -25.80933 42967 ft 476 kts 207°
2026-04-25 10:19 8.73163 -25.84051 42966 ft 476 kts 207°
2026-04-25 10:20 8.67232 -25.87225 42967 ft 477 kts 207°
2026-04-25 10:20 8.61381 -25.90355 42965 ft 476 kts 207°
2026-04-25 10:21 8.55520 -25.93489 42965 ft 476 kts 207°
2026-04-25 10:21 8.49657 -25.96623 42962 ft 477 kts 207°
2026-04-25 10:22 8.43798 -25.99754 42963 ft 476 kts 207°
2026-04-25 10:22 8.37943 -26.02882 42960 ft 477 kts 207°
2026-04-25 10:23 8.32072 -26.06017 42964 ft 477 kts 207°
2026-04-25 10:23 8.26208 -26.09150 42961 ft 476 kts 207°
2026-04-25 10:24 8.20346 -26.12280 42966 ft 477 kts 207°
2026-04-25 10:24 8.14484 -26.15409 42963 ft 477 kts 207°
2026-04-25 10:25 8.08618 -26.18539 42971 ft 477 kts 206°
2026-04-25 10:25 8.02756 -26.21666 42960 ft 477 kts 206°
2026-04-25 10:26 7.96888 -26.24795 42957 ft 477 kts 206°
2026-04-25 10:26 7.91012 -26.27928 42956 ft 477 kts 206°
2026-04-25 10:27 7.85136 -26.31058 42960 ft 477 kts 206°
2026-04-25 10:27 7.79268 -26.34185 42961 ft 478 kts 206°
2026-04-25 10:28 7.73389 -26.37316 42965 ft 478 kts 206°
2026-04-25 10:28 7.67511 -26.40446 42960 ft 478 kts 206°
2026-04-25 10:29 7.61628 -26.43576 42964 ft 478 kts 206°
2026-04-25 10:29 7.55752 -26.46703 42961 ft 478 kts 206°
2026-04-25 10:30 7.49864 -26.49834 42960 ft 478 kts 206°
2026-04-25 10:30 7.43978 -26.52965 42962 ft 478 kts 206°
2026-04-25 10:31 7.38084 -26.56097 42959 ft 478 kts 206°
2026-04-25 10:31 7.32242 -26.59202 42961 ft 478 kts 206°
2026-04-25 10:32 7.26313 -26.62352 42956 ft 478 kts 206°
2026-04-25 10:32 7.20426 -26.65478 42953 ft 478 kts 206°
2026-04-25 10:33 7.14540 -26.68603 42958 ft 479 kts 206°
2026-04-25 10:33 7.08645 -26.71732 42958 ft 479 kts 206°
2026-04-25 10:34 7.02759 -26.74855 42960 ft 478 kts 206°
2026-04-25 10:34 6.97828 -26.77471 42960 ft 479 kts 206°
2026-04-25 10:35 6.91935 -26.80596 42965 ft 479 kts 206°
2026-04-25 10:35 6.86042 -26.83721 42958 ft 479 kts 206°
2026-04-25 10:36 6.80144 -26.86847 42961 ft 479 kts 206°
2026-04-25 10:36 6.74252 -26.89969 42965 ft 479 kts 206°
2026-04-25 10:37 6.68345 -26.93098 42967 ft 479 kts 206°
2026-04-25 10:37 6.62447 -26.96222 42966 ft 479 kts 206°
2026-04-25 10:38 6.56546 -26.99346 42966 ft 479 kts 206°
2026-04-25 10:38 6.50651 -27.02467 42961 ft 480 kts 206°
2026-04-25 10:39 6.44742 -27.05593 42958 ft 480 kts 206°
2026-04-25 10:39 6.38832 -27.08719 42961 ft 480 kts 206°
2026-04-25 10:40 6.32924 -27.11840 42959 ft 480 kts 206°
2026-04-25 10:40 6.27013 -27.14964 42958 ft 480 kts 206°
2026-04-25 10:41 6.21105 -27.18084 42959 ft 480 kts 206°
2026-04-25 10:41 6.15199 -27.21203 42961 ft 480 kts 206°
2026-04-25 10:42 6.09297 -27.24319 42959 ft 480 kts 206°
2026-04-25 10:42 6.03376 -27.27445 42958 ft 480 kts 206°
2026-04-25 10:43 5.97462 -27.30565 42959 ft 480 kts 206°
2026-04-25 10:43 5.91545 -27.33687 42959 ft 480 kts 206°
2026-04-25 10:44 5.85644 -27.36799 42962 ft 480 kts 206°
2026-04-25 10:44 5.79725 -27.39920 42953 ft 479 kts 206°
2026-04-25 10:45 5.73911 -27.42986 42954 ft 479 kts 206°
2026-04-25 10:45 5.67887 -27.46160 42947 ft 478 kts 206°
2026-04-25 10:46 5.61959 -27.49284 42955 ft 478 kts 206°
2026-04-25 10:46 5.56058 -27.52393 42951 ft 478 kts 206°
2026-04-25 10:47 5.50163 -27.55498 42954 ft 477 kts 206°
2026-04-25 10:47 5.44249 -27.58612 42946 ft 476 kts 206°
2026-04-25 10:48 5.38380 -27.61702 42947 ft 476 kts 206°
2026-04-25 10:48 5.32540 -27.64775 42950 ft 475 kts 206°
2026-04-25 10:49 5.26635 -27.67883 42948 ft 474 kts 206°
2026-04-25 10:49 5.20717 -27.70996 42946 ft 474 kts 206°
2026-04-25 10:50 5.14874 -27.74070 42952 ft 474 kts 206°
2026-04-25 10:50 5.09064 -27.77125 42948 ft 473 kts 206°
2026-04-25 10:51 5.03213 -27.80202 42949 ft 473 kts 206°
2026-04-25 10:51 4.97386 -27.83265 42946 ft 472 kts 206°
2026-04-25 10:52 4.91574 -27.86319 42945 ft 472 kts 206°
2026-04-25 10:52 4.85758 -27.89376 42944 ft 471 kts 206°
2026-04-25 10:53 4.79922 -27.92441 42948 ft 471 kts 206°
2026-04-25 10:53 4.74141 -27.95478 42948 ft 471 kts 206°
2026-04-25 10:54 4.68291 -27.98550 42938 ft 469 kts 206°
2026-04-25 10:54 4.63482 -28.01075 42936 ft 469 kts 206°
2026-04-25 10:55 4.57693 -28.04114 42936 ft 469 kts 206°
2026-04-25 10:55 4.51919 -28.07145 42938 ft 468 kts 206°
2026-04-25 10:56 4.46153 -28.10170 42937 ft 468 kts 206°
2026-04-25 10:56 4.40294 -28.13245 42940 ft 468 kts 206°
2026-04-25 10:57 4.34540 -28.16263 42941 ft 467 kts 206°
2026-04-25 10:57 4.28899 -28.19222 42941 ft 466 kts 206°
2026-04-25 10:58 4.23202 -28.22210 42939 ft 464 kts 206°
2026-04-25 10:58 4.17772 -28.25057 42938 ft 464 kts 206°
2026-04-25 10:59 4.12063 -28.28050 42945 ft 462 kts 206°
2026-04-25 10:59 4.06357 -28.31040 42947 ft 461 kts 206°
2026-04-25 11:00 4.00681 -28.34015 42948 ft 461 kts 206°
2026-04-25 11:00 3.94996 -28.36994 42944 ft 461 kts 206°
2026-04-25 11:01 3.89315 -28.39971 42943 ft 460 kts 206°
2026-04-25 11:01 3.83583 -28.42973 42944 ft 461 kts 206°
2026-04-25 11:02 3.77942 -28.45928 42944 ft 460 kts 206°
2026-04-25 11:02 3.72236 -28.48916 42943 ft 460 kts 206°
2026-04-25 11:03 3.66532 -28.51902 42940 ft 459 kts 206°
2026-04-25 11:03 3.60889 -28.54857 42944 ft 460 kts 206°
2026-04-25 11:04 3.55219 -28.57825 42945 ft 460 kts 206°
2026-04-25 11:04 3.49505 -28.60815 42938 ft 460 kts 206°
2026-04-25 11:05 3.43840 -28.63780 42946 ft 459 kts 206°
2026-04-25 11:05 3.38180 -28.66741 42941 ft 459 kts 206°
2026-04-25 11:06 3.32518 -28.69704 42947 ft 459 kts 206°
2026-04-25 11:06 3.26886 -28.72649 42950 ft 458 kts 206°
2026-04-25 11:07 3.21205 -28.75621 42949 ft 458 kts 206°
2026-04-25 11:07 3.15559 -28.78574 42947 ft 457 kts 206°
2026-04-25 11:08 3.09945 -28.81512 42944 ft 457 kts 206°
2026-04-25 11:08 3.04272 -28.84494 42945 ft 457 kts 206°
2026-04-25 11:09 2.98646 -28.87444 42944 ft 456 kts 206°
2026-04-25 11:09 2.93026 -28.90394 42944 ft 456 kts 206°
2026-04-25 11:10 2.87390 -28.93350 42948 ft 456 kts 206°
2026-04-25 11:10 2.81779 -28.96293 42948 ft 455 kts 206°
2026-04-25 11:11 2.76167 -28.99237 42944 ft 455 kts 206°
2026-04-25 11:11 2.70594 -29.02160 42947 ft 455 kts 206°
2026-04-25 11:12 2.64964 -29.05112 42945 ft 454 kts 206°
2026-04-25 11:12 2.59369 -29.08046 42948 ft 454 kts 206°
2026-04-25 11:13 2.53774 -29.10980 42949 ft 454 kts 206°
2026-04-25 11:13 2.48219 -29.13891 42950 ft 453 kts 206°
2026-04-25 11:14 2.42591 -29.16842 42950 ft 453 kts 206°
2026-04-25 11:14 2.37952 -29.19273 42948 ft 453 kts 206°
2026-04-25 11:15 2.32318 -29.22226 42946 ft 453 kts 205°
2026-04-25 11:15 2.26745 -29.25147 42954 ft 452 kts 205°
2026-04-25 11:16 2.18383 -29.29528 42949 ft 452 kts 205°
2026-04-25 11:16 2.12814 -29.32446 42950 ft 452 kts 205°
2026-04-25 11:17 2.07239 -29.35367 42943 ft 452 kts 205°
2026-04-25 11:17 2.01696 -29.38271 42946 ft 451 kts 205°
2026-04-25 11:18 1.96096 -29.41204 42947 ft 452 kts 205°
2026-04-25 11:18 1.90604 -29.44081 42940 ft 451 kts 205°
2026-04-25 11:19 1.85049 -29.46990 42945 ft 452 kts 205°
2026-04-25 11:19 1.79607 -29.49840 42942 ft 451 kts 205°
2026-04-25 11:20 1.73952 -29.52802 42936 ft 450 kts 205°
2026-04-25 11:20 1.68676 -29.55564 42937 ft 451 kts 205°
2026-04-25 11:21 1.63128 -29.58469 42948 ft 451 kts 205°
2026-04-25 11:21 1.57561 -29.61384 42954 ft 451 kts 205°
2026-04-25 11:22 1.52934 -29.63806 42951 ft 451 kts 205°
2026-04-25 11:22 1.46493 -29.67178 42943 ft 451 kts 205°
2026-04-25 11:23 1.40968 -29.70070 42949 ft 451 kts 205°
2026-04-25 11:23 1.35352 -29.72993 42943 ft 452 kts 205°
2026-04-25 11:24 1.29765 -29.75873 42941 ft 452 kts 205°
2026-04-25 11:24 1.24197 -29.78762 42936 ft 452 kts 205°
2026-04-25 11:25 1.18580 -29.81665 42941 ft 453 kts 205°
2026-04-25 11:25 1.12951 -29.84580 42939 ft 454 kts 205°
2026-04-25 11:26 1.07391 -29.87456 42941 ft 454 kts 205°
2026-04-25 11:26 1.01738 -29.90381 42945 ft 456 kts 205°
2026-04-25 11:27 0.96099 -29.93299 42950 ft 456 kts 205°
2026-04-25 11:27 0.91433 -29.95713 42938 ft 456 kts 205°
2026-04-25 11:28 0.84807 -29.99141 42942 ft 457 kts 205°
2026-04-25 11:28 0.79156 -30.02065 42942 ft 458 kts 205°
2026-04-25 11:29 0.73483 -30.05000 42942 ft 458 kts 205°
2026-04-25 11:29 0.67813 -30.07933 42948 ft 459 kts 205°
2026-04-25 11:30 0.62147 -30.10864 42941 ft 459 kts 205°
2026-04-25 11:30 0.56479 -30.13796 42939 ft 459 kts 205°
2026-04-25 11:31 0.50789 -30.16740 42939 ft 460 kts 205°
2026-04-25 11:31 0.45031 -30.19718 42942 ft 460 kts 205°
2026-04-25 11:32 0.39349 -30.22657 42942 ft 460 kts 205°
2026-04-25 11:32 0.33685 -30.25587 42939 ft 460 kts 205°
2026-04-25 11:33 0.27990 -30.28533 42939 ft 461 kts 205°
2026-04-25 11:33 0.22291 -30.31481 42944 ft 462 kts 205°
2026-04-25 11:34 0.16578 -30.34434 42943 ft 462 kts 205°
2026-04-25 11:34 0.10871 -30.37384 42945 ft 462 kts 205°
2026-04-25 11:35 0.06105 -30.39849 42952 ft 463 kts 205°
2026-04-25 11:35 0.00378 -30.42809 42950 ft 463 kts 205°
2026-04-25 11:36 -0.05309 -30.45749 42957 ft 463 kts 206°
2026-04-25 11:36 -0.11001 -30.48692 42953 ft 462 kts 206°
2026-04-25 11:37 -0.16765 -30.51672 42953 ft 462 kts 206°
2026-04-25 11:37 -0.22484 -30.54628 42957 ft 462 kts 206°
2026-04-25 11:38 -0.28189 -30.57577 42953 ft 462 kts 206°
2026-04-25 11:38 -0.33893 -30.60527 42955 ft 462 kts 206°
2026-04-25 11:39 -0.39613 -30.63484 42955 ft 461 kts 206°
2026-04-25 11:39 -0.45289 -30.66419 42954 ft 463 kts 205°
2026-04-25 11:40 -0.51017 -30.69380 42955 ft 463 kts 205°
2026-04-25 11:40 -0.56766 -30.72352 42955 ft 464 kts 205°
2026-04-25 11:41 -0.62448 -30.75290 42955 ft 465 kts 205°
2026-04-25 11:41 -0.68217 -30.78273 42952 ft 465 kts 205°
2026-04-25 11:42 -0.73983 -30.81255 42956 ft 465 kts 205°
2026-04-25 11:42 -0.79717 -30.84219 42957 ft 465 kts 206°
2026-04-25 11:43 -0.85475 -30.87197 42959 ft 464 kts 206°
2026-04-25 11:43 -0.91210 -30.90163 42959 ft 464 kts 206°
2026-04-25 11:44 -0.96924 -30.93116 42961 ft 463 kts 206°
2026-04-25 11:44 -1.02665 -30.96077 42964 ft 463 kts 206°
2026-04-25 11:45 -1.08391 -30.99033 42960 ft 462 kts 206°
2026-04-25 11:45 -1.14104 -31.01982 42960 ft 462 kts 206°
2026-04-25 11:46 -1.19878 -31.04963 42960 ft 463 kts 206°
2026-04-25 11:46 -1.25646 -31.07940 42959 ft 463 kts 206°
2026-04-25 11:47 -1.31373 -31.10897 42959 ft 463 kts 206°
2026-04-25 11:47 -1.37111 -31.13859 42965 ft 463 kts 206°
2026-04-25 11:48 -1.42846 -31.16820 42966 ft 464 kts 206°
2026-04-25 11:48 -1.48577 -31.19780 42969 ft 464 kts 206°
2026-04-25 11:49 -1.54321 -31.22746 42969 ft 464 kts 206°
2026-04-25 11:49 -1.60051 -31.25705 42969 ft 464 kts 206°
2026-04-25 11:50 -1.65774 -31.28661 42970 ft 463 kts 206°
2026-04-25 11:50 -1.71501 -31.31618 42968 ft 463 kts 206°
2026-04-25 11:51 -1.77232 -31.34579 42967 ft 463 kts 206°
2026-04-25 11:51 -1.82941 -31.37527 42963 ft 463 kts 206°
2026-04-25 11:52 -1.88667 -31.40485 42963 ft 465 kts 206°
2026-04-25 11:52 -1.94432 -31.43464 42965 ft 467 kts 206°
2026-04-25 11:53 -2.00103 -31.46394 42966 ft 468 kts 206°
2026-04-25 11:53 -2.05921 -31.49400 42963 ft 468 kts 206°
2026-04-25 11:54 -2.11719 -31.52396 42954 ft 471 kts 206°
2026-04-25 11:55 -2.20459 -31.56913 42960 ft 475 kts 206°
2026-04-25 11:55 -2.26353 -31.59959 42960 ft 475 kts 206°
2026-04-25 11:56 -2.32260 -31.63013 42958 ft 475 kts 206°
2026-04-25 11:56 -2.38145 -31.66055 42957 ft 475 kts 206°
2026-04-25 11:57 -2.43013 -31.68571 42955 ft 475 kts 206°
2026-04-25 11:57 -2.48920 -31.71626 42957 ft 475 kts 206°
2026-04-25 11:58 -2.54835 -31.74684 42959 ft 475 kts 206°
2026-04-25 11:58 -2.60745 -31.77741 42958 ft 475 kts 206°
2026-04-25 11:59 -2.66582 -31.80760 42953 ft 474 kts 206°
2026-04-25 11:59 -2.72440 -31.83790 42956 ft 474 kts 206°
2026-04-25 12:00 -2.81239 -31.88342 42950 ft 474 kts 206°
2026-04-25 12:01 -2.89999 -31.92875 42955 ft 473 kts 206°
2026-04-25 12:01 -2.95850 -31.95903 42954 ft 473 kts 206°
2026-04-25 12:02 -3.04665 -32.00465 42953 ft 473 kts 206°
2026-04-25 12:02 -3.10472 -32.03471 42951 ft 473 kts 206°
2026-04-25 12:03 -3.16312 -32.06495 42953 ft 473 kts 206°
2026-04-25 12:03 -3.22175 -32.09531 42952 ft 474 kts 206°
2026-04-25 12:04 -3.27995 -32.12545 42951 ft 474 kts 206°
2026-04-25 12:04 -3.33860 -32.15648 42947 ft 474 kts 207°
2026-04-25 12:05 -3.39704 -32.18728 42945 ft 475 kts 207°
2026-04-25 12:05 -3.45586 -32.21831 42952 ft 476 kts 207°
2026-04-25 12:06 -3.51450 -32.24926 42952 ft 476 kts 207°
2026-04-25 12:06 -3.57234 -32.27977 42957 ft 476 kts 207°
2026-04-25 12:07 -3.63081 -32.31064 42961 ft 476 kts 207°
2026-04-25 12:07 -3.68934 -32.34154 42968 ft 476 kts 207°
2026-04-25 12:08 -3.74886 -32.37296 42972 ft 477 kts 207°
2026-04-25 12:08 -3.80686 -32.40358 42976 ft 477 kts 207°
2026-04-25 12:09 -3.86626 -32.43495 42969 ft 477 kts 206°
2026-04-25 12:09 -3.92536 -32.46518 42967 ft 477 kts 205°
2026-04-25 12:10 -3.98444 -32.49561 42960 ft 477 kts 206°
2026-04-25 12:10 -4.04371 -32.52613 42963 ft 480 kts 206°
2026-04-25 12:11 -4.10373 -32.55698 42966 ft 482 kts 206°
2026-04-25 12:11 -4.16359 -32.58783 42960 ft 484 kts 206°
2026-04-25 12:12 -4.21353 -32.61349 42958 ft 485 kts 206°
2026-04-25 12:12 -4.28353 -32.64958 42957 ft 486 kts 206°
2026-04-25 12:13 -4.34392 -32.68066 42960 ft 485 kts 206°
2026-04-25 12:13 -4.40360 -32.71141 42963 ft 485 kts 206°
2026-04-25 12:14 -4.46319 -32.74210 42959 ft 486 kts 206°
2026-04-25 12:14 -4.52416 -32.77352 42962 ft 486 kts 206°
2026-04-25 12:15 -4.58404 -32.80438 42959 ft 486 kts 206°
2026-04-25 12:15 -4.64451 -32.83550 42955 ft 486 kts 206°
2026-04-25 12:16 -4.70449 -32.86627 42960 ft 486 kts 206°
2026-04-25 12:16 -4.76460 -32.89719 42959 ft 485 kts 206°
2026-04-25 12:17 -4.82456 -32.92800 42960 ft 485 kts 206°
2026-04-25 12:17 -4.88513 -32.95915 42959 ft 484 kts 206°
2026-04-25 12:18 -4.93484 -32.98470 42962 ft 484 kts 206°
2026-04-25 12:18 -4.99480 -33.01554 42966 ft 484 kts 206°
2026-04-25 12:19 -5.08282 -33.06082 42962 ft 482 kts 206°
2026-04-25 12:20 -5.14253 -33.09155 42964 ft 482 kts 206°
2026-04-25 12:20 -5.20234 -33.12233 42962 ft 481 kts 206°
2026-04-25 12:21 -5.26133 -33.15269 42964 ft 480 kts 206°
2026-04-25 12:21 -5.32172 -33.18379 42962 ft 480 kts 206°
2026-04-25 12:22 -5.38152 -33.21458 42965 ft 479 kts 206°
2026-04-25 12:22 -5.43827 -33.24382 42965 ft 478 kts 206°
2026-04-25 12:23 -5.49685 -33.27400 42965 ft 477 kts 206°
2026-04-25 12:23 -5.55627 -33.30462 42965 ft 475 kts 206°
2026-04-25 12:24 -5.61496 -33.33488 42962 ft 474 kts 206°
2026-04-25 12:24 -5.67320 -33.36490 42961 ft 473 kts 206°
2026-04-25 12:25 -5.73116 -33.39479 42957 ft 473 kts 206°
2026-04-25 12:25 -5.78989 -33.42509 42963 ft 475 kts 206°
2026-04-25 12:26 -5.84846 -33.45531 42970 ft 475 kts 206°
2026-04-25 12:26 -5.90733 -33.48568 42970 ft 476 kts 206°
2026-04-25 12:27 -5.96633 -33.51614 42970 ft 476 kts 206°
2026-04-25 12:27 -6.02532 -33.54660 42969 ft 477 kts 206°
2026-04-25 12:28 -6.08434 -33.57708 42969 ft 477 kts 206°
2026-04-25 12:28 -6.14337 -33.60758 42967 ft 477 kts 206°
2026-04-25 12:29 -6.20248 -33.63812 42968 ft 477 kts 206°
2026-04-25 12:29 -6.26171 -33.66873 42970 ft 477 kts 206°
2026-04-25 12:30 -6.32070 -33.69922 42971 ft 477 kts 206°
2026-04-25 12:30 -6.37966 -33.72971 42969 ft 477 kts 206°
2026-04-25 12:31 -6.43873 -33.76026 42968 ft 476 kts 206°
2026-04-25 12:31 -6.49720 -33.79052 42966 ft 475 kts 206°
2026-04-25 12:32 -6.55593 -33.82091 42969 ft 474 kts 206°
2026-04-25 12:32 -6.61476 -33.85136 42967 ft 474 kts 206°
2026-04-25 12:33 -6.67333 -33.88169 42970 ft 473 kts 206°
2026-04-25 12:33 -6.73219 -33.91217 42970 ft 473 kts 206°
2026-04-25 12:34 -6.79057 -33.94242 42971 ft 472 kts 206°
2026-04-25 12:34 -6.84862 -33.97250 42972 ft 471 kts 206°
2026-04-25 12:35 -6.90679 -34.00266 42970 ft 470 kts 206°
2026-04-25 12:35 -6.96498 -34.03282 42973 ft 470 kts 206°
2026-04-25 12:36 -7.02305 -34.06294 42975 ft 469 kts 206°
2026-04-25 12:36 -7.08113 -34.09307 42971 ft 470 kts 206°
2026-04-25 12:37 -7.13932 -34.12327 42971 ft 471 kts 206°
2026-04-25 12:37 -7.19761 -34.15352 42974 ft 470 kts 206°
2026-04-25 12:38 -7.25528 -34.18347 42970 ft 471 kts 206°
2026-04-25 12:38 -7.31348 -34.21370 42967 ft 471 kts 206°
2026-04-25 12:39 -7.37175 -34.24397 42968 ft 471 kts 206°
2026-04-25 12:39 -7.42996 -34.27422 42975 ft 470 kts 206°
2026-04-25 12:40 -7.48853 -34.30467 42974 ft 470 kts 206°
2026-04-25 12:40 -7.54677 -34.33496 42977 ft 470 kts 206°
2026-04-25 12:41 -7.59501 -34.36005 42987 ft 469 kts 207°
2026-04-25 12:41 -7.65307 -34.39026 42990 ft 469 kts 207°
2026-04-25 12:42 -7.71103 -34.42043 42975 ft 468 kts 207°
2026-04-25 12:42 -7.76906 -34.45064 42969 ft 469 kts 207°
2026-04-25 12:43 -7.82668 -34.48199 42972 ft 469 kts 208°
2026-04-25 12:43 -7.91143 -34.52759 42975 ft 470 kts 208°
2026-04-25 12:44 -7.96809 -34.55842 42976 ft 470 kts 208°
2026-04-25 12:45 -8.05428 -34.60491 42985 ft 470 kts 208°
2026-04-25 12:45 -8.14055 -34.65040 42956 ft 468 kts 202°
2026-04-25 12:46 -8.20208 -34.67537 42982 ft 470 kts 201°
2026-04-25 12:46 -8.26049 -34.69989 42988 ft 470 kts 202°
2026-04-25 12:47 -8.31944 -34.72426 42981 ft 468 kts 201°
2026-04-25 12:47 -8.37915 -34.74904 42994 ft 469 kts 202°
2026-04-25 12:48 -8.43811 -34.77357 42996 ft 470 kts 201°
2026-04-25 12:48 -8.49889 -34.79877 42984 ft 468 kts 202°
2026-04-25 12:49 -8.55913 -34.82384 42979 ft 467 kts 201°
2026-04-25 12:49 -8.61876 -34.84859 42989 ft 468 kts 202°
2026-04-25 12:50 -8.67233 -34.87090 42996 ft 469 kts 201°
2026-04-25 12:50 -8.73115 -34.89534 43003 ft 469 kts 202°
2026-04-25 12:51 -8.79191 -34.92064 43012 ft 468 kts 202°
2026-04-25 12:51 -8.84273 -34.94179 43001 ft 468 kts 202°
2026-04-25 12:52 -8.89935 -34.96536 42997 ft 468 kts 202°
2026-04-25 12:52 -8.94504 -34.98440 42989 ft 468 kts 202°
2026-04-25 12:53 -9.00548 -35.00957 42997 ft 468 kts 202°
2026-04-25 12:53 -9.06602 -35.03607 42968 ft 468 kts 207°
2026-04-25 12:54 -9.12281 -35.06943 43007 ft 469 kts 210°
2026-04-25 12:54 -9.17645 -35.10025 43000 ft 468 kts 208°
2026-04-25 12:55 -9.22237 -35.12668 43006 ft 468 kts 209°
2026-04-25 12:55 -9.28672 -35.16410 43010 ft 468 kts 208°
2026-04-25 12:56 -9.34384 -35.19705 43002 ft 468 kts 209°
2026-04-25 12:56 -9.40029 -35.22982 43006 ft 468 kts 209°
2026-04-25 12:57 -9.44698 -35.25678 42999 ft 468 kts 209°
2026-04-25 12:57 -9.48466 -35.27865 42993 ft 469 kts 209°
2026-04-25 12:58 -9.53116 -35.30560 42993 ft 468 kts 209°
2026-04-25 12:58 -9.58936 -35.33932 42997 ft 468 kts 209°
2026-04-25 12:59 -9.64643 -35.37242 42993 ft 468 kts 209°
2026-04-25 12:59 -9.70146 -35.40434 42995 ft 468 kts 209°
2026-04-25 13:00 -9.73905 -35.42616 42997 ft 468 kts 209°
2026-04-25 13:00 -9.81421 -35.46979 43006 ft 468 kts 209°
2026-04-25 13:01 -9.87050 -35.50248 43003 ft 468 kts 209°
2026-04-25 13:01 -9.92688 -35.53524 43002 ft 467 kts 210°
2026-04-25 13:02 -9.98355 -35.56818 43003 ft 468 kts 210°
2026-04-25 13:02 -10.01093 -35.58410 43003 ft 468 kts 210°
2026-04-25 13:03 -10.06771 -35.61713 43003 ft 468 kts 210°
2026-04-25 13:03 -10.12311 -35.64936 43008 ft 468 kts 210°
2026-04-25 13:04 -10.17036 -35.67686 43002 ft 468 kts 210°
2026-04-25 13:04 -10.22753 -35.71015 42983 ft 468 kts 210°
2026-04-25 13:05 -10.28414 -35.74313 43005 ft 468 kts 210°
2026-04-25 13:05 -10.34069 -35.77609 43004 ft 468 kts 210°
2026-04-25 13:06 -10.39710 -35.80897 42998 ft 468 kts 210°
2026-04-25 13:06 -10.45359 -35.84192 43001 ft 468 kts 210°
2026-04-25 13:07 -10.51037 -35.87505 43004 ft 468 kts 210°
2026-04-25 13:07 -10.56349 -35.90606 43002 ft 467 kts 210°
2026-04-25 13:08 -10.62073 -35.93949 43014 ft 468 kts 210°
2026-04-25 13:08 -10.67748 -35.97265 43004 ft 468 kts 210°
2026-04-25 13:09 -10.73409 -36.00574 43006 ft 469 kts 210°
2026-04-25 13:09 -10.78829 -36.03743 43005 ft 468 kts 210°
2026-04-25 13:10 -10.83729 -36.06610 43006 ft 467 kts 210°
2026-04-25 13:10 -10.89432 -36.09947 43002 ft 468 kts 210°
2026-04-25 13:11 -10.95060 -36.13243 43005 ft 469 kts 210°
2026-04-25 13:11 -11.00694 -36.16542 43004 ft 469 kts 210°
2026-04-25 13:12 -11.06390 -36.19881 43010 ft 470 kts 211°
2026-04-25 13:12 -11.10137 -36.22077 43015 ft 470 kts 211°
2026-04-25 13:13 -11.15863 -36.25258 43004 ft 469 kts 208°
2026-04-25 13:13 -11.21690 -36.28285 43014 ft 471 kts 208°
2026-04-25 13:14 -11.27339 -36.31264 43005 ft 472 kts 208°
2026-04-25 13:14 -11.33123 -36.34283 42997 ft 473 kts 208°
2026-04-25 13:15 -11.38976 -36.37361 43001 ft 474 kts 208°
2026-04-25 13:15 -11.44545 -36.40279 43010 ft 475 kts 208°
2026-04-25 13:16 -11.49188 -36.42717 43002 ft 475 kts 208°
2026-04-25 13:16 -11.53622 -36.45047 43003 ft 476 kts 208°
2026-04-25 13:17 -11.59504 -36.48135 43001 ft 477 kts 208°
2026-04-25 13:17 -11.64237 -36.50624 42997 ft 478 kts 208°
2026-04-25 13:18 -11.70436 -36.53882 43006 ft 479 kts 208°
2026-04-25 13:18 -11.76401 -36.57021 43008 ft 478 kts 208°
2026-04-25 13:19 -11.82184 -36.60064 43001 ft 480 kts 208°
2026-04-25 13:19 -11.85558 -36.61841 43007 ft 481 kts 208°
2026-04-25 13:20 -11.93451 -36.65998 43017 ft 481 kts 207°
2026-04-25 13:20 -11.97734 -36.68256 43014 ft 480 kts 207°
2026-04-25 13:21 -12.03290 -36.71185 43012 ft 479 kts 207°
2026-04-25 13:21 -12.08392 -36.73876 43009 ft 479 kts 207°
2026-04-25 13:22 -12.13602 -36.76626 43010 ft 480 kts 207°
2026-04-25 13:23 -12.21678 -36.80890 43019 ft 479 kts 207°
2026-04-25 13:23 -12.27673 -36.84057 43021 ft 479 kts 207°
2026-04-25 13:23 -12.30855 -36.85739 43358 ft 478 kts 207°
2026-04-25 13:24 -12.33852 -36.87323 43731 ft 477 kts 207°
2026-04-25 13:24 -12.36819 -36.88893 44075 ft 476 kts 207°
2026-04-25 13:24 -12.40039 -36.90596 44467 ft 476 kts 207°
2026-04-25 13:24 -12.43060 -36.92195 44822 ft 474 kts 207°
2026-04-25 13:25 -12.45925 -36.93711 45075 ft 474 kts 207°
2026-04-25 13:25 -12.48697 -36.95178 45300 ft 475 kts 207°
2026-04-25 13:25 -12.51308 -36.96561 45502 ft 475 kts 207°
2026-04-25 13:25 -12.53311 -36.97622 45661 ft 475 kts 207°
2026-04-25 13:26 -12.56345 -36.99229 45889 ft 475 kts 207°
2026-04-25 13:26 -12.59442 -37.00870 46104 ft 475 kts 207°
2026-04-25 13:26 -12.62527 -37.02505 46325 ft 475 kts 207°
2026-04-25 13:26 -12.65512 -37.04088 46502 ft 475 kts 207°
2026-04-25 13:27 -12.68505 -37.05675 46684 ft 475 kts 207°
2026-04-25 13:27 -12.70485 -37.06725 46806 ft 475 kts 207°
2026-04-25 13:27 -12.73328 -37.08233 46979 ft 475 kts 207°
2026-04-25 13:28 -12.79356 -37.11433 47007 ft 479 kts 207°
2026-04-25 13:28 -12.85320 -37.14600 47005 ft 474 kts 207°
2026-04-25 13:29 -12.91314 -37.17785 47013 ft 474 kts 207°
2026-04-25 13:29 -12.97279 -37.20956 47012 ft 475 kts 207°
2026-04-25 13:30 -13.06176 -37.25689 47014 ft 475 kts 207°
2026-04-25 13:31 -13.14427 -37.30082 47014 ft 475 kts 206°
2026-04-25 13:31 -13.20324 -37.33223 47018 ft 476 kts 206°
2026-04-25 13:32 -13.26224 -37.36368 47020 ft 476 kts 206°
2026-04-25 13:32 -13.32047 -37.39474 47029 ft 476 kts 206°
2026-04-25 13:33 -13.35667 -37.41406 47019 ft 476 kts 206°
2026-04-25 13:33 -13.41412 -37.44473 47029 ft 474 kts 206°
2026-04-25 13:34 -13.47292 -37.47613 47032 ft 476 kts 206°
2026-04-25 13:34 -13.53273 -37.50809 47030 ft 476 kts 206°
2026-04-25 13:35 -13.59149 -37.53951 47032 ft 476 kts 206°
2026-04-25 13:35 -13.65014 -37.57089 47036 ft 475 kts 206°
2026-04-25 13:36 -13.70933 -37.60257 47037 ft 476 kts 206°
2026-04-25 13:36 -13.75801 -37.62865 47040 ft 475 kts 206°
2026-04-25 13:37 -13.81686 -37.66018 47038 ft 475 kts 206°
2026-04-25 13:37 -13.87546 -37.69160 47038 ft 476 kts 206°
2026-04-25 13:38 -13.93467 -37.72337 47037 ft 475 kts 206°
2026-04-25 13:38 -13.99325 -37.75482 47043 ft 475 kts 206°
2026-04-25 13:39 -14.05212 -37.78644 47044 ft 475 kts 206°
2026-04-25 13:39 -14.11084 -37.81799 47049 ft 475 kts 206°
2026-04-25 13:40 -14.16938 -37.84948 47046 ft 475 kts 206°
2026-04-25 13:40 -14.22804 -37.88104 47049 ft 475 kts 206°
2026-04-25 13:41 -14.28740 -37.91300 47047 ft 474 kts 206°
2026-04-25 13:41 -14.34538 -37.94423 47044 ft 473 kts 206°
2026-04-25 13:42 -14.40453 -37.97611 47041 ft 473 kts 206°
2026-04-25 13:42 -14.46287 -38.00758 47046 ft 474 kts 206°
2026-04-25 13:43 -14.52144 -38.03919 47052 ft 473 kts 206°
2026-04-25 13:43 -14.57996 -38.07079 47043 ft 472 kts 206°
2026-04-25 13:44 -14.63666 -38.10142 47047 ft 472 kts 206°
2026-04-25 13:44 -14.69640 -38.13372 47056 ft 472 kts 206°
2026-04-25 13:45 -14.75490 -38.16536 47055 ft 471 kts 206°
2026-04-25 13:45 -14.81205 -38.19630 47055 ft 470 kts 206°
2026-04-25 13:46 -14.87040 -38.22790 47053 ft 470 kts 206°
2026-04-25 13:46 -14.92862 -38.25946 47058 ft 469 kts 206°
2026-04-25 13:47 -14.98631 -38.29074 47057 ft 469 kts 206°
2026-04-25 13:47 -15.04413 -38.32212 47060 ft 469 kts 206°
2026-04-25 13:48 -15.10178 -38.35344 47056 ft 469 kts 206°
2026-04-25 13:48 -15.16003 -38.38509 47059 ft 468 kts 206°
2026-04-25 13:49 -15.21773 -38.41647 47056 ft 468 kts 206°
2026-04-25 13:49 -15.27383 -38.44700 47047 ft 468 kts 206°
2026-04-25 13:50 -15.33197 -38.47865 47044 ft 468 kts 206°
2026-04-25 13:50 -15.38564 -38.50789 47044 ft 469 kts 207°
2026-04-25 13:51 -15.44336 -38.53935 47050 ft 468 kts 207°
2026-04-25 13:51 -15.50064 -38.57060 47051 ft 469 kts 207°
2026-04-25 13:52 -15.55884 -38.60236 47048 ft 468 kts 207°
2026-04-25 13:52 -15.61653 -38.63388 47050 ft 468 kts 207°
2026-04-25 13:53 -15.67338 -38.66494 47053 ft 468 kts 207°
2026-04-25 13:53 -15.72235 -38.69173 47051 ft 468 kts 207°
2026-04-25 13:54 -15.77591 -38.72103 47052 ft 468 kts 207°
2026-04-25 13:54 -15.83009 -38.75069 47060 ft 467 kts 207°
2026-04-25 13:55 -15.88778 -38.78230 47062 ft 467 kts 207°
2026-04-25 13:55 -15.94529 -38.81383 47061 ft 467 kts 207°
2026-04-25 13:56 -16.00325 -38.84562 47062 ft 467 kts 207°
2026-04-25 13:56 -16.06058 -38.87709 47059 ft 466 kts 207°
2026-04-25 13:57 -16.11782 -38.90853 47061 ft 466 kts 207°
2026-04-25 13:57 -16.17366 -38.93922 47067 ft 466 kts 207°
2026-04-25 13:58 -16.23011 -38.97027 47067 ft 467 kts 208°
2026-04-25 13:58 -16.28869 -39.00149 47072 ft 467 kts 206°
2026-04-25 13:59 -16.34621 -39.03175 47076 ft 466 kts 207°
2026-04-25 13:59 -16.40480 -39.06300 47078 ft 466 kts 207°
2026-04-25 14:00 -16.45230 -39.08844 47070 ft 466 kts 209°
2026-04-25 14:00 -16.51895 -39.12582 47076 ft 467 kts 208°
2026-04-25 14:01 -16.57632 -39.15807 47077 ft 466 kts 209°
2026-04-25 14:01 -16.63336 -39.19014 47069 ft 466 kts 208°
2026-04-25 14:02 -16.68985 -39.22186 47069 ft 466 kts 209°
2026-04-25 14:02 -16.74724 -39.25420 47067 ft 466 kts 209°
2026-04-25 14:03 -16.80434 -39.28632 47069 ft 466 kts 209°
2026-04-25 14:03 -16.85838 -39.31680 47067 ft 467 kts 209°
2026-04-25 14:04 -16.90658 -39.34394 47067 ft 467 kts 209°
2026-04-25 14:04 -16.96356 -39.37611 47059 ft 466 kts 209°
2026-04-25 14:05 -17.01880 -39.40728 47058 ft 466 kts 209°
2026-04-25 14:05 -17.07599 -39.43960 47042 ft 467 kts 209°
2026-04-25 14:06 -17.13283 -39.47173 47058 ft 466 kts 209°
2026-04-25 14:06 -17.18965 -39.50388 47062 ft 466 kts 209°
2026-04-25 14:07 -17.24696 -39.53633 47055 ft 466 kts 209°
2026-04-25 14:07 -17.30308 -39.56812 47061 ft 466 kts 209°
2026-04-25 14:08 -17.35994 -39.60036 47061 ft 466 kts 209°
2026-04-25 14:08 -17.41791 -39.63324 47061 ft 465 kts 209°
2026-04-25 14:09 -17.47486 -39.66558 47063 ft 465 kts 209°
2026-04-25 14:09 -17.53122 -39.69760 47065 ft 465 kts 210°
2026-04-25 14:10 -17.58850 -39.73017 47065 ft 465 kts 210°
2026-04-25 14:10 -17.64533 -39.76251 47062 ft 465 kts 210°
2026-04-25 14:11 -17.70307 -39.79538 47066 ft 464 kts 210°
2026-04-25 14:11 -17.75982 -39.82772 47062 ft 464 kts 210°
2026-04-25 14:12 -17.81656 -39.86007 47063 ft 464 kts 210°
2026-04-25 14:12 -17.87331 -39.89246 47066 ft 464 kts 210°
2026-04-25 14:13 -17.93035 -39.92504 47072 ft 464 kts 210°
2026-04-25 14:13 -17.98568 -39.95666 47066 ft 464 kts 210°
2026-04-25 14:14 -18.04260 -39.98910 47062 ft 463 kts 209°
2026-04-25 14:14 -18.09985 -40.02147 47066 ft 464 kts 209°
2026-04-25 14:15 -18.14670 -40.04813 47068 ft 464 kts 209°
2026-04-25 14:15 -18.20359 -40.08041 47068 ft 464 kts 209°
2026-04-25 14:16 -18.25998 -40.11249 47067 ft 463 kts 209°
2026-04-25 14:16 -18.31675 -40.14478 47064 ft 463 kts 209°
2026-04-25 14:17 -18.37351 -40.17710 47062 ft 463 kts 210°
2026-04-25 14:17 -18.43020 -40.20940 47067 ft 463 kts 210°
2026-04-25 14:18 -18.48694 -40.24175 47067 ft 463 kts 210°
2026-04-25 14:18 -18.54359 -40.27408 47069 ft 463 kts 210°
2026-04-25 14:19 -18.60014 -40.30638 47066 ft 463 kts 210°
2026-04-25 14:19 -18.65550 -40.33802 47072 ft 463 kts 210°
2026-04-25 14:20 -18.71083 -40.36966 47069 ft 463 kts 210°
2026-04-25 14:20 -18.76938 -40.40318 47073 ft 463 kts 210°
2026-04-25 14:21 -18.82637 -40.43583 47065 ft 463 kts 210°
2026-04-25 14:21 -18.88216 -40.46781 47063 ft 462 kts 210°
2026-04-25 14:22 -18.93916 -40.50051 47068 ft 462 kts 210°
2026-04-25 14:22 -18.99549 -40.53285 47068 ft 462 kts 210°
2026-04-25 14:23 -19.05147 -40.56502 47070 ft 462 kts 210°
2026-04-25 14:23 -19.10885 -40.59803 47076 ft 462 kts 210°
2026-04-25 14:24 -19.16459 -40.63010 47068 ft 462 kts 210°
2026-04-25 14:24 -19.22147 -40.66286 47065 ft 462 kts 210°
2026-04-25 14:25 -19.27784 -40.69535 47073 ft 462 kts 210°
2026-04-25 14:25 -19.33390 -40.72770 47072 ft 461 kts 210°
2026-04-25 14:26 -19.39098 -40.76065 47072 ft 461 kts 210°
2026-04-25 14:26 -19.44670 -40.79285 47070 ft 462 kts 210°
2026-04-25 14:27 -19.50317 -40.82550 47076 ft 461 kts 210°
2026-04-25 14:27 -19.55939 -40.85804 47073 ft 461 kts 210°
2026-04-25 14:28 -19.61607 -40.89091 47073 ft 460 kts 210°
2026-04-25 14:28 -19.67248 -40.92374 47080 ft 460 kts 210°
2026-04-25 14:29 -19.72712 -40.95551 47078 ft 460 kts 211°
2026-04-25 14:29 -19.77779 -40.98502 47075 ft 460 kts 211°
2026-04-25 14:30 -19.82609 -41.01316 47074 ft 459 kts 211°
2026-04-25 14:30 -19.90996 -41.06222 47085 ft 459 kts 211°
2026-04-25 14:31 -19.96130 -41.09242 47084 ft 459 kts 211°
2026-04-25 14:31 -20.01797 -41.12568 47096 ft 459 kts 211°
2026-04-25 14:32 -20.04379 -41.14089 47084 ft 459 kts 211°
2026-04-25 14:32 -20.10195 -41.17511 47087 ft 459 kts 211°
2026-04-25 14:33 -20.15683 -41.20743 47081 ft 458 kts 211°
2026-04-25 14:33 -20.21188 -41.23989 47085 ft 459 kts 211°
2026-04-25 14:34 -20.26764 -41.27278 47090 ft 458 kts 211°
2026-04-25 14:34 -20.32400 -41.30606 47087 ft 459 kts 211°
2026-04-25 14:35 -20.37936 -41.33876 47085 ft 458 kts 211°
2026-04-25 14:35 -20.42799 -41.36753 47083 ft 457 kts 211°
2026-04-25 14:36 -20.48499 -41.40125 47079 ft 457 kts 211°
2026-04-25 14:36 -20.54082 -41.43414 47076 ft 458 kts 211°
2026-04-25 14:37 -20.59707 -41.46711 47077 ft 458 kts 211°
2026-04-25 14:37 -20.64910 -41.49777 47070 ft 457 kts 211°
2026-04-25 14:38 -20.70429 -41.53021 47064 ft 457 kts 211°
2026-04-25 14:38 -20.74963 -41.55694 47065 ft 457 kts 211°
2026-04-25 14:39 -20.80059 -41.58698 47062 ft 458 kts 211°
2026-04-25 14:39 -20.85653 -41.61998 47065 ft 458 kts 211°
2026-04-25 14:40 -20.91301 -41.65333 47051 ft 456 kts 211°
2026-04-25 14:40 -20.96865 -41.68621 47060 ft 457 kts 211°
2026-04-25 14:41 -21.01874 -41.71584 47060 ft 456 kts 211°
2026-04-25 14:41 -21.06763 -41.74478 47049 ft 456 kts 211°
2026-04-25 14:42 -21.10375 -41.76617 47041 ft 456 kts 211°
2026-04-25 14:42 -21.17884 -41.81069 47043 ft 456 kts 211°
2026-04-25 14:43 -21.23429 -41.84359 47008 ft 454 kts 211°
2026-04-25 14:43 -21.25338 -41.85492 46559 ft 455 kts 211°
2026-04-25 14:43 -21.28145 -41.87158 45951 ft 438 kts 212°
2026-04-25 14:44 -21.30760 -41.88708 45374 ft 426 kts 212°
2026-04-25 14:44 -21.33400 -41.90283 44811 ft 430 kts 212°
2026-04-25 14:44 -21.34738 -41.91082 44477 ft 431 kts 212°
2026-04-25 14:44 -21.36508 -41.92136 44076 ft 432 kts 212°
2026-04-25 14:45 -21.39178 -41.93721 43508 ft 432 kts 212°
2026-04-25 14:45 -21.41806 -41.95283 42945 ft 432 kts 212°
2026-04-25 14:45 -21.44435 -41.96851 42376 ft 433 kts 212°
2026-04-25 14:45 -21.47046 -41.98408 41809 ft 435 kts 211°
2026-04-25 14:46 -21.49718 -42.00000 41223 ft 436 kts 211°
2026-04-25 14:46 -21.52276 -42.01524 40670 ft 437 kts 211°
2026-04-25 14:46 -21.55108 -42.03213 40055 ft 438 kts 211°
2026-04-25 14:46 -21.57749 -42.04790 39484 ft 439 kts 211°
2026-04-25 14:47 -21.60442 -42.06398 38903 ft 440 kts 211°
2026-04-25 14:47 -21.62188 -42.07441 38487 ft 440 kts 211°
2026-04-25 14:47 -21.65807 -42.09602 37696 ft 438 kts 211°
2026-04-25 14:47 -21.68477 -42.11198 37118 ft 440 kts 211°
2026-04-25 14:48 -21.71196 -42.12825 36523 ft 443 kts 211°
2026-04-25 14:48 -21.73889 -42.14437 35955 ft 445 kts 211°
2026-04-25 14:48 -21.76599 -42.16058 35354 ft 446 kts 212°
2026-04-25 14:48 -21.79276 -42.17661 34771 ft 447 kts 212°
2026-04-25 14:49 -21.82001 -42.19294 34180 ft 448 kts 212°
2026-04-25 14:49 -21.84733 -42.20933 33590 ft 451 kts 212°
2026-04-25 14:49 -21.87478 -42.22585 32987 ft 452 kts 212°
2026-04-25 14:49 -21.90180 -42.24220 32397 ft 453 kts 212°
2026-04-25 14:50 -21.92974 -42.25911 31797 ft 455 kts 212°
2026-04-25 14:50 -21.95754 -42.27588 31199 ft 457 kts 212°
2026-04-25 14:50 -21.98532 -42.29263 30594 ft 459 kts 212°
2026-04-25 14:50 -22.00691 -42.30568 30127 ft 460 kts 212°
2026-04-25 14:51 -22.03423 -42.32222 29470 ft 457 kts 212°
2026-04-25 14:51 -22.05757 -42.33642 28982 ft 450 kts 212°
2026-04-25 14:51 -22.07549 -42.34999 28500 ft 443 kts 222°
2026-04-25 14:51 -22.09550 -42.37307 27994 ft 433 kts 232°
2026-04-25 14:52 -22.10571 -42.38994 27673 ft 429 kts 241°
2026-04-25 14:52 -22.11775 -42.42035 27306 ft 423 kts 252°
2026-04-25 14:52 -22.12496 -42.45061 26944 ft 423 kts 255°
2026-04-25 14:52 -22.13000 -42.47174 26661 ft 426 kts 255°
2026-04-25 14:53 -22.13997 -42.51216 26120 ft 424 kts 254°
2026-04-25 14:53 -22.14802 -42.54539 25673 ft 420 kts 255°
2026-04-25 14:53 -22.15530 -42.57608 25259 ft 419 kts 255°
2026-04-25 14:53 -22.16251 -42.60619 24866 ft 417 kts 255°
2026-04-25 14:54 -22.17003 -42.63723 24447 ft 415 kts 255°
2026-04-25 14:54 -22.17719 -42.66694 24082 ft 413 kts 255°
2026-04-25 14:54 -22.18504 -42.69980 23667 ft 411 kts 255°
2026-04-25 14:54 -22.19197 -42.72876 23237 ft 409 kts 255°
2026-04-25 14:55 -22.19900 -42.75809 22802 ft 406 kts 255°
2026-04-25 14:55 -22.20622 -42.78817 22371 ft 404 kts 255°
2026-04-25 14:55 -22.21319 -42.81734 22066 ft 400 kts 255°
2026-04-25 14:55 -22.21999 -42.84584 21947 ft 399 kts 255°
2026-04-25 14:56 -22.22712 -42.87572 21965 ft 400 kts 255°
2026-04-25 14:56 -22.23161 -42.89453 22032 ft 401 kts 255°
2026-04-25 14:56 -22.23893 -42.92523 22069 ft 403 kts 255°
2026-04-25 14:56 -22.24590 -42.95451 22068 ft 402 kts 255°
2026-04-25 14:57 -22.25287 -42.98378 22059 ft 403 kts 255°
2026-04-25 14:57 -22.25984 -43.01311 22066 ft 403 kts 255°
2026-04-25 14:57 -22.26680 -43.04243 22058 ft 402 kts 255°
2026-04-25 14:57 -22.27373 -43.07164 22046 ft 403 kts 255°
2026-04-25 14:58 -22.28072 -43.10114 21422 ft 406 kts 255°
2026-04-25 14:58 -22.28763 -43.13027 20768 ft 398 kts 255°
2026-04-25 14:58 -22.29413 -43.15771 20161 ft 392 kts 256°
2026-04-25 14:58 -22.30088 -43.18631 19543 ft 389 kts 256°
2026-04-25 14:59 -22.30750 -43.21431 18918 ft 384 kts 256°
2026-04-25 14:59 -22.31426 -43.24288 18282 ft 380 kts 256°
2026-04-25 14:59 -22.32088 -43.27094 17632 ft 376 kts 256°
2026-04-25 14:59 -22.32724 -43.29800 17039 ft 375 kts 256°
2026-04-25 15:00 -22.33370 -43.32542 16444 ft 373 kts 256°
2026-04-25 15:00 -22.34007 -43.35248 15850 ft 372 kts 256°
2026-04-25 15:00 -22.34645 -43.37956 15256 ft 370 kts 256°
2026-04-25 15:00 -22.35287 -43.40688 14656 ft 369 kts 256°
2026-04-25 15:01 -22.35913 -43.43360 14077 ft 365 kts 256°
2026-04-25 15:01 -22.36693 -43.45958 13408 ft 363 kts 244°
2026-04-25 15:01 -22.38162 -43.48138 12859 ft 357 kts 227°
2026-04-25 15:01 -22.40162 -43.49712 12292 ft 356 kts 209°
2026-04-25 15:02 -22.42452 -43.50729 11770 ft 355 kts 202°
2026-04-25 15:02 -22.44732 -43.51658 11215 ft 345 kts 202°
2026-04-25 15:02 -22.46950 -43.52575 10666 ft 331 kts 202°
2026-04-25 15:02 -22.48758 -43.53339 10207 ft 320 kts 202°
2026-04-25 15:03 -22.50709 -43.54163 9717 ft 307 kts 202°
2026-04-25 15:03 -22.52648 -43.54972 9221 ft 295 kts 202°
2026-04-25 15:03 -22.54559 -43.55721 8744 ft 284 kts 198°
2026-04-25 15:03 -22.56542 -43.55815 8258 ft 283 kts 173°
2026-04-25 15:04 -22.58394 -43.55098 7859 ft 282 kts 156°
2026-04-25 15:04 -22.60155 -43.54158 7445 ft 284 kts 156°
2026-04-25 15:04 -22.61943 -43.53217 6993 ft 285 kts 156°
2026-04-25 15:04 -22.63683 -43.52272 6538 ft 284 kts 153°
2026-04-25 15:05 -22.65081 -43.50767 6156 ft 283 kts 128°
2026-04-25 15:05 -22.66216 -43.49026 5773 ft 286 kts 127°
2026-04-25 15:05 -22.67344 -43.47313 5351 ft 289 kts 127°
2026-04-25 15:06 -22.69743 -43.43712 4373 ft 286 kts 127°
2026-04-25 15:06 -22.70822 -43.42082 3923 ft 246 kts 126°
2026-04-25 15:06 -22.71744 -43.40688 3510 ft 211 kts 127°
2026-04-25 15:06 -22.72591 -43.39457 3180 ft 206 kts 127°
2026-04-25 15:07 -22.73400 -43.38265 2917 ft 226 kts 126°
2026-04-25 15:07 -22.74345 -43.36839 2492 ft 227 kts 125°
2026-04-25 15:07 -22.75227 -43.35478 2168 ft 222 kts 126°
2026-04-25 15:07 -22.76120 -43.34119 1779 ft 219 kts 125°
2026-04-25 15:08 -22.76995 -43.32799 1661 ft 209 kts 125°
2026-04-25 15:08 -22.77794 -43.31592 1338 ft 192 kts 124°
2026-04-25 15:08 -22.78547 -43.30448 1036 ft 175 kts 125°
2026-04-25 15:08 -22.79033 -43.29714 810 ft 159 kts 125°
2026-04-25 15:09 -22.79653 -43.28778 569 ft 136 kts 124°
2026-04-25 15:09 -22.80140 -43.28040 423 ft 126 kts 124°
2026-04-25 15:09 -22.81219 -43.26402 99 ft 128 kts 125°
2026-04-25 15:10 -22.81686 -43.25694 27 ft 116 kts 124°
2026-04-25 15:10 -22.82005 -43.25213 24 ft 85 kts 129°
2026-04-25 15:10 -22.82351 -43.24620 16 ft 23 kts 103°
2026-04-25 15:11 -22.82367 -43.24479 15 ft 9 kts 95°
2026-04-25 15:11 -22.82361 -43.24452 15 ft 0 kts 68°
2026-04-25 15:13 -22.82329 -43.24453 15 ft 8 kts 297°
2026-04-25 15:13 -22.82206 -43.24641 16 ft 23 kts 307°
2026-04-25 15:13 -22.82113 -43.24781 19 ft 21 kts 305°
2026-04-25 15:14 -22.82024 -43.24914 20 ft 24 kts 305°
2026-04-25 15:14 -22.81910 -43.25089 22 ft 30 kts 305°
2026-04-25 15:14 -22.81786 -43.25276 19 ft 30 kts 306°
2026-04-25 15:14 -22.81664 -43.25459 18 ft 29 kts 306°
2026-04-25 15:15 -22.81539 -43.25647 18 ft 29 kts 306°
2026-04-25 15:15 -22.81417 -43.25835 19 ft 27 kts 305°
2026-04-25 15:15 -22.81333 -43.25960 23 ft 12 kts 312°
2026-04-25 15:15 -22.81274 -43.25975 20 ft 11 kts 36°
2026-04-25 15:16 -22.81222 -43.25890 18 ft 12 kts 42°
2026-04-25 15:16 -22.81123 -43.25815 18 ft 24 kts 36°
2026-04-25 15:16 -22.80802 -43.25567 20 ft 27 kts 36°
2026-04-25 15:17 -22.80656 -43.25455 20 ft 0 kts 35°
2026-04-25 15:17 -22.80625 -43.25430 26 ft 5 kts 37°
2026-04-25 15:17 -22.80593 -43.25403 27 ft 11 kts 41°
2026-04-25 15:18 -22.80505 -43.25295 25 ft 28 kts 56°
2026-04-25 15:18 -22.80374 -43.24888 22 ft 28 kts 72°
2026-04-25 15:18 -22.80317 -43.24674 22 ft 30 kts 77°
2026-04-25 15:19 -22.80263 -43.24455 25 ft 33 kts 74°
2026-04-25 15:19 -22.80243 -43.24377 26 ft 33 kts 75°
2026-04-25 15:19 -22.80142 -43.23996 26 ft 31 kts 73°
2026-04-25 15:19 -22.80087 -43.23776 26 ft 30 kts 73°
2026-04-25 15:20 -22.80034 -43.23565 27 ft 28 kts 74°
2026-04-25 15:20 -22.79981 -43.23362 26 ft 28 kts 74°
2026-04-25 15:20 -22.79937 -43.23190 29 ft 25 kts 75°
2026-04-25 15:20 -22.79898 -43.23033 32 ft 23 kts 68°
2026-04-25 15:21 -22.79863 -43.22904 34 ft 21 kts 73°
2026-04-25 15:21 -22.79822 -43.22743 35 ft 21 kts 73°
2026-04-25 15:21 -22.79824 -43.22664 34 ft 8 kts 137°
2026-04-25 15:21 -22.79878 -43.22637 34 ft 8 kts 160°
2026-04-25 15:22 -22.79937 -43.22620 34 ft 12 kts 166°
2026-04-25 15:22 -22.80012 -43.22581 34 ft 12 kts 130°
2026-04-25 15:22 -22.80050 -43.22510 34 ft 10 kts 102°
2026-04-25 15:22 -22.80034 -43.22479 34 ft 1 kts 13°
2026-04-25 15:23 -22.80031 -43.22483 34 ft 0 kts 309°
2026-04-25 15:23 -22.80029 -43.22488 34 ft 0 kts 294°